,,Stat5,,Stat1,,Stat2,,Stat3,,Stat4,,Wind1,,Wind1,
time,status,PA1M_AVG,status,PR1M_SUM,status,RH1M_AVG,status,SR1M_AVG,status,TA1M_AVG,status,W1dAve1m,status,W1sAve1m,
2001-11-24, 00:00:01,VALID,918.218,VALID,0,VALID,94.6799,VALID,0.0849042,VALID,18.7255,VALID,149,VALID,0,
2001-11-24, 00:01:00,VALID,918.214,VALID,0,VALID,94.8464,VALID,0.0679233,VALID,18.7349,VALID,147,VALID,0,
2001-11-24, 00:02:00,VALID,918.196,VALID,0,VALID,95.1949,VALID,0.0679233,VALID,18.7668,VALID,68,VALID,0.0707721,
2001-11-24, 00:03:00,VALID,918.216,VALID,0,VALID,95.4695,VALID,0.0849042,VALID,18.7963,VALID,61,VALID,0,
2001-11-24, 00:04:01,VALID,918.216,VALID,0,VALID,95.5293,VALID,0.0509425,VALID,18.8127,VALID,61,VALID,0,
2001-11-24, 00:05:00,VALID,918.222,VALID,0,VALID,95.5624,VALID,-0.0849042,VALID,18.8039,VALID,57,VALID,0.0845982,
2001-11-24, 00:06:01,VALID,918.205,VALID,0,VALID,95.7073,VALID,-0.0509425,VALID,18.794,VALID,18,VALID,0.490885,
2001-11-24, 00:07:00,VALID,918.204,VALID,0,VALID,95.8701,VALID,-0.0339617,VALID,18.7972,VALID,19,VALID,0.520616,
2001-11-24, 00:08:00,VALID,918.177,VALID,0,VALID,95.907,VALID,-0.0509425,VALID,18.7883,VALID,24,VALID,0.437054,
2001-11-24, 00:09:01,VALID,918.174,VALID,0,VALID,95.9146,VALID,-0.0169808,VALID,18.7488,VALID,24,VALID,0.223524,
2001-11-24, 00:10:00,VALID,918.168,VALID,0,VALID,96.0583,VALID,-0.0339617,VALID,18.7361,VALID,24,VALID,0.0078125,
2001-11-24, 00:11:01,VALID,918.153,VALID,0,VALID,96.1053,VALID,-0.0169808,VALID,18.7137,VALID,24,VALID,0,
2001-11-24, 00:12:00,VALID,918.142,VALID,0,VALID,95.954,VALID,0,VALID,18.6743,VALID,24,VALID,0,
2001-11-24, 00:13:00,VALID,918.14,VALID,0,VALID,95.9095,VALID,-0.0509425,VALID,18.6521,VALID,24,VALID,0,
2001-11-24, 00:14:00,VALID,918.132,VALID,0,VALID,95.9591,VALID,-0.0339617,VALID,18.6392,VALID,24,VALID,0,
2001-11-24, 00:15:00,VALID,918.129,VALID,0,VALID,96.0634,VALID,-0.0679233,VALID,18.6293,VALID,24,VALID,0,
2001-11-24, 00:16:00,VALID,918.126,VALID,0,VALID,96.188,VALID,-0.0509425,VALID,18.6422,VALID,24,VALID,0,
2001-11-24, 00:17:01,VALID,918.103,VALID,0,VALID,96.216,VALID,-0.0509425,VALID,18.6462,VALID,24,VALID,0.0253906,
2001-11-24, 00:18:01,VALID,918.087,VALID,0,VALID,96.2808,VALID,-0.0849042,VALID,18.6362,VALID,24,VALID,0.0555556,
2001-11-24, 00:19:00,VALID,918.078,VALID,0,VALID,96.2973,VALID,-0.0849042,VALID,18.6268,VALID,24,VALID,0,
2001-11-24, 00:20:00,VALID,918.078,VALID,0,VALID,96.3635,VALID,-0.101885,VALID,18.6263,VALID,24,VALID,0.308712,
2001-11-24, 00:21:00,VALID,918.066,VALID,0,VALID,96.3584,VALID,-0.0509425,VALID,18.6307,VALID,23,VALID,0.378084,
2001-11-24, 00:22:00,VALID,918.074,VALID,0,VALID,96.3393,VALID,-0.0849042,VALID,18.5947,VALID,23,VALID,0.191071,
2001-11-24, 00:23:00,VALID,918.058,VALID,0,VALID,96.2846,VALID,-0.0679233,VALID,18.5689,VALID,52,VALID,0.149816,
2001-11-24, 00:24:00,VALID,918.061,VALID,0,VALID,96.2859,VALID,-0.0509425,VALID,18.5297,VALID,73,VALID,0.0135135,
2001-11-24, 00:25:00,VALID,918.062,VALID,0,VALID,96.4042,VALID,-0.0849042,VALID,18.5334,VALID,60,VALID,0.144637,
2001-11-24, 00:26:01,VALID,918.058,VALID,0,VALID,96.5822,VALID,-0.0339617,VALID,18.546,VALID,56,VALID,0.135742,
2001-11-24, 00:27:01,VALID,918.065,VALID,0,VALID,96.5224,VALID,-0.0679233,VALID,18.5525,VALID,56,VALID,0.138455,
2001-11-24, 00:28:00,VALID,918.072,VALID,0,VALID,96.3851,VALID,-0.0679233,VALID,18.5393,VALID,56,VALID,0.0249566,
2001-11-24, 00:29:00,VALID,918.062,VALID,0,VALID,96.263,VALID,-0.0679233,VALID,18.5366,VALID,56,VALID,0.136364,
2001-11-24, 00:30:00,VALID,918.072,VALID,0,VALID,96.1015,VALID,-0.0169808,VALID,18.4971,VALID,56,VALID,0.302426,
2001-11-24, 00:31:00,VALID,918.066,VALID,0,VALID,96.1066,VALID,0,VALID,18.4911,VALID,56,VALID,0.232366,
2001-11-24, 00:32:01,VALID,918.052,VALID,0,VALID,96.0163,VALID,-0.0339617,VALID,18.4844,VALID,56,VALID,0.362822,
2001-11-24, 00:33:00,VALID,918.044,VALID,0,VALID,96.2325,VALID,-0.0509425,VALID,18.4971,VALID,50,VALID,0.380912,
2001-11-24, 00:34:00,VALID,918.04,VALID,0,VALID,96.319,VALID,-0.0509425,VALID,18.5301,VALID,40,VALID,0.386824,
2001-11-24, 00:35:01,VALID,918.021,VALID,0,VALID,96.4105,VALID,-0.0339617,VALID,18.5204,VALID,40,VALID,0.345459,
2001-11-24, 00:36:01,VALID,918.006,VALID,0,VALID,96.4359,VALID,-0.0169808,VALID,18.5031,VALID,40,VALID,0.28559,
2001-11-24, 00:37:00,VALID,917.983,VALID,0,VALID,96.2363,VALID,-0.0169808,VALID,18.4874,VALID,40,VALID,0.269314,
2001-11-24, 00:38:00,VALID,917.96,VALID,0,VALID,96.2884,VALID,-0.0509425,VALID,18.4909,VALID,40,VALID,0.257339,
2001-11-24, 00:39:00,VALID,917.939,VALID,0,VALID,96.5529,VALID,-0.0679233,VALID,18.5334,VALID,40,VALID,0.353207,
2001-11-24, 00:40:00,VALID,917.917,VALID,0,VALID,96.675,VALID,-0.0169808,VALID,18.559,VALID,39,VALID,0.365625,
2001-11-24, 00:41:01,VALID,917.913,VALID,0,VALID,96.6979,VALID,-0.0339617,VALID,18.5682,VALID,24,VALID,0.466452,
2001-11-24, 00:42:00,VALID,917.895,VALID,0,VALID,96.633,VALID,-0.0169808,VALID,18.5721,VALID,19,VALID,0.471284,
2001-11-24, 00:43:00,VALID,917.897,VALID,0,VALID,96.319,VALID,-0.0169808,VALID,18.5133,VALID,19,VALID,0.657939,
2001-11-24, 00:44:01,VALID,917.879,VALID,0,VALID,96.1867,VALID,0,VALID,18.475,VALID,18,VALID,0.660645,
2001-11-24, 00:45:01,VALID,917.862,VALID,0,VALID,96.2757,VALID,-0.0339617,VALID,18.4685,VALID,16,VALID,0.789063,
2001-11-24, 00:46:00,VALID,917.831,VALID,0,VALID,96.2032,VALID,-0.0679233,VALID,18.4616,VALID,15,VALID,0.50651,
2001-11-24, 00:47:00,VALID,917.814,VALID,0,VALID,95.996,VALID,-0.0169808,VALID,18.4554,VALID,15,VALID,0.241951,
2001-11-24, 00:48:00,VALID,917.782,VALID,0,VALID,95.8319,VALID,-0.0169808,VALID,18.4489,VALID,15,VALID,0.236637,
2001-11-24, 00:49:00,VALID,917.753,VALID,0,VALID,95.8205,VALID,-0.0339617,VALID,18.4556,VALID,15,VALID,0.234152,
2001-11-24, 00:50:01,VALID,917.717,VALID,0,VALID,95.9031,VALID,-0.0169808,VALID,18.4847,VALID,13,VALID,0.536075,
2001-11-24, 00:51:01,VALID,917.69,VALID,0,VALID,95.8968,VALID,-0.0339617,VALID,18.5135,VALID,15,VALID,0.663851,
2001-11-24, 00:52:00,VALID,917.687,VALID,0,VALID,95.5916,VALID,-0.0339617,VALID,18.5008,VALID,16,VALID,0.479096,
2001-11-24, 00:53:01,VALID,917.678,VALID,0,VALID,95.2368,VALID,-0.0169808,VALID,18.4877,VALID,28,VALID,0.518311,
2001-11-24, 00:54:01,VALID,917.688,VALID,0,VALID,95.1109,VALID,-0.0679233,VALID,18.5008,VALID,31,VALID,0.33138,
2001-11-24, 00:55:00,VALID,917.685,VALID,0,VALID,95.0995,VALID,-0.0849042,VALID,18.4978,VALID,30,VALID,0.0900608,
2001-11-24, 00:56:00,VALID,917.661,VALID,0,VALID,95.1427,VALID,-0.0169808,VALID,18.5202,VALID,30,VALID,0,
2001-11-24, 00:57:00,VALID,917.664,VALID,0,VALID,95.0728,VALID,-0.0339617,VALID,18.5103,VALID,30,VALID,0,
2001-11-24, 00:58:01,VALID,917.678,VALID,0,VALID,94.9291,VALID,-0.0339617,VALID,18.5135,VALID,25,VALID,0.290848,
2001-11-24, 00:59:01,VALID,917.668,VALID,0,VALID,94.9482,VALID,-0.0169808,VALID,18.5719,VALID,15,VALID,0.474724,
2001-11-24, 01:00:00,VALID,917.671,VALID,0,VALID,94.9075,VALID,-0.0169808,VALID,18.6039,VALID,24,VALID,0.357897,
2001-11-24, 01:01:01,VALID,917.654,VALID,0,VALID,94.98,VALID,-0.0339617,VALID,18.6335,VALID,24,VALID,0.341427,
2001-11-24, 01:02:01,VALID,917.64,VALID,0,VALID,95.0677,VALID,-0.0849042,VALID,18.6397,VALID,21,VALID,0.369141,
2001-11-24, 01:03:01,VALID,917.636,VALID,0,VALID,95.0486,VALID,-0.0679233,VALID,18.6429,VALID,15,VALID,0.979384,
2001-11-24, 01:04:01,VALID,917.608,VALID,0,VALID,94.5235,VALID,-0.0339617,VALID,18.6208,VALID,20,VALID,0.93099,
2001-11-24, 01:05:01,VALID,917.581,VALID,0,VALID,94.1712,VALID,-0.0339617,VALID,18.6109,VALID,18,VALID,0.694602,
2001-11-24, 01:06:01,VALID,917.568,VALID,0,VALID,94.3442,VALID,-0.0339617,VALID,18.6402,VALID,16,VALID,0.846217,
2001-11-24, 01:07:01,VALID,917.57,VALID,0,VALID,94.4739,VALID,-0.0509425,VALID,18.6655,VALID,360,VALID,0.234375,
2001-11-24, 01:08:01,VALID,917.546,VALID,0,VALID,94.465,VALID,-0.0509425,VALID,18.6789,VALID,336,VALID,0.112132,
2001-11-24, 01:09:01,VALID,917.531,VALID,0,VALID,94.2806,VALID,-0.0509425,VALID,18.6787,VALID,315,VALID,0,
2001-11-24, 01:10:01,VALID,917.52,VALID,0,VALID,93.9678,VALID,-0.0169808,VALID,18.6752,VALID,315,VALID,0,
2001-11-24, 01:11:01,VALID,917.537,VALID,0,VALID,93.7376,VALID,-0.0509425,VALID,18.714,VALID,315,VALID,0,
2001-11-24, 01:12:01,VALID,917.53,VALID,0,VALID,93.7007,VALID,-0.0339617,VALID,18.7468,VALID,315,VALID,0,
2001-11-24, 01:13:01,VALID,917.503,VALID,0,VALID,94.2717,VALID,-0.0509425,VALID,18.7885,VALID,4,VALID,0.365017,
2001-11-24, 01:14:01,VALID,917.466,VALID,0,VALID,94.4332,VALID,0,VALID,18.7943,VALID,20,VALID,0.252841,
2001-11-24, 01:15:01,VALID,917.467,VALID,0,VALID,94.3327,VALID,-0.0509425,VALID,18.7716,VALID,7,VALID,0.273643,
2001-11-24, 01:16:01,VALID,917.458,VALID,0,VALID,94.3925,VALID,-0.0509425,VALID,18.7532,VALID,5,VALID,0.394643,
2001-11-24, 01:17:01,VALID,917.436,VALID,0,VALID,94.4268,VALID,0,VALID,18.7237,VALID,25,VALID,0.442096,
2001-11-24, 01:18:01,VALID,917.407,VALID,0,VALID,94.5362,VALID,-0.0849042,VALID,18.7075,VALID,4,VALID,0.360431,
2001-11-24, 01:19:01,VALID,917.416,VALID,0,VALID,94.7701,VALID,-0.0679233,VALID,18.7048,VALID,11,VALID,0.454603,
2001-11-24, 01:20:01,VALID,917.411,VALID,0,VALID,94.9469,VALID,0.0509425,VALID,18.6837,VALID,14,VALID,0.0771484,
2001-11-24, 01:21:01,VALID,917.436,VALID,0,VALID,94.9456,VALID,0.0679233,VALID,18.6512,VALID,14,VALID,0.047309,
2001-11-24, 01:22:01,VALID,917.438,VALID,0,VALID,94.938,VALID,0.0509425,VALID,18.6254,VALID,14,VALID,0,
2001-11-24, 01:23:01,VALID,917.434,VALID,0,VALID,95.0156,VALID,0.0509425,VALID,18.6092,VALID,14,VALID,0.00118371,
2001-11-24, 01:24:01,VALID,917.42,VALID,0,VALID,95.2012,VALID,0.0849042,VALID,18.6097,VALID,2,VALID,0.33162,
2001-11-24, 01:25:00,VALID,917.395,VALID,0,VALID,95.3525,VALID,0.0509425,VALID,18.5931,VALID,20,VALID,0.549554,
2001-11-24, 01:26:00,VALID,917.376,VALID,0,VALID,95.3322,VALID,0.0849042,VALID,18.564,VALID,31,VALID,0.47909,
2001-11-24, 01:27:00,VALID,917.371,VALID,0,VALID,95.3195,VALID,0.0849042,VALID,18.519,VALID,33,VALID,0.537796,
2001-11-24, 01:28:00,VALID,917.367,VALID,0,VALID,95.2915,VALID,0.0509425,VALID,18.4771,VALID,35,VALID,0.425465,
2001-11-24, 01:29:00,VALID,917.354,VALID,0,VALID,95.4416,VALID,0.0339617,VALID,18.4611,VALID,38,VALID,0.0898438,
2001-11-24, 01:30:00,VALID,917.351,VALID,0,VALID,95.4759,VALID,0.0679233,VALID,18.448,VALID,39,VALID,0.187066,
2001-11-24, 01:31:00,VALID,917.339,VALID,0,VALID,95.5509,VALID,0.0509425,VALID,18.4383,VALID,319,VALID,0.163411,
2001-11-24, 01:32:00,VALID,917.319,VALID,0,VALID,95.5267,VALID,0.0849042,VALID,18.4247,VALID,267,VALID,0.0160985,
2001-11-24, 01:33:00,VALID,917.317,VALID,0,VALID,95.6743,VALID,0.101885,VALID,18.4284,VALID,53,VALID,0.290502,
2001-11-24, 01:34:00,VALID,917.298,VALID,0,VALID,95.7124,VALID,0.0169808,VALID,18.4254,VALID,53,VALID,0.00803571,
2001-11-24, 01:35:00,VALID,917.294,VALID,0,VALID,95.7353,VALID,0.0509425,VALID,18.415,VALID,49,VALID,0.182904,
2001-11-24, 01:36:00,VALID,917.289,VALID,0,VALID,95.7251,VALID,0.0849042,VALID,18.403,VALID,35,VALID,0.326225,
2001-11-24, 01:37:00,VALID,917.28,VALID,0,VALID,95.8574,VALID,0.0679233,VALID,18.3892,VALID,19,VALID,0.405405,
2001-11-24, 01:38:00,VALID,917.274,VALID,0,VALID,96.0367,VALID,0.0509425,VALID,18.3829,VALID,7,VALID,0.55835,
2001-11-24, 01:39:00,VALID,917.266,VALID,0,VALID,96.1486,VALID,0.0509425,VALID,18.3899,VALID,13,VALID,0.382595,
2001-11-24, 01:40:00,VALID,917.237,VALID,0,VALID,96.2541,VALID,0.0169808,VALID,18.3733,VALID,17,VALID,0.755859,
2001-11-24, 01:41:00,VALID,917.21,VALID,0,VALID,96.4245,VALID,0.0849042,VALID,18.3668,VALID,16,VALID,0.388494,
2001-11-24, 01:42:00,VALID,917.201,VALID,0,VALID,96.6063,VALID,0.0679233,VALID,18.3871,VALID,16,VALID,0.389186,
2001-11-24, 01:43:00,VALID,917.195,VALID,0,VALID,96.6776,VALID,0.0849042,VALID,18.3832,VALID,16,VALID,0.412946,
2001-11-24, 01:44:00,VALID,917.208,VALID,0,VALID,96.7106,VALID,0.0339617,VALID,18.3829,VALID,16,VALID,0.257353,
2001-11-24, 01:45:00,VALID,917.204,VALID,0,VALID,96.75,VALID,0.0339617,VALID,18.3864,VALID,16,VALID,0.119932,
2001-11-24, 01:46:00,VALID,917.197,VALID,0,VALID,96.8378,VALID,0.0679233,VALID,18.3995,VALID,16,VALID,0.0863598,
2001-11-24, 01:47:00,VALID,917.19,VALID,0,VALID,96.9014,VALID,0.0509425,VALID,18.3995,VALID,35,VALID,0.133301,
2001-11-24, 01:48:00,VALID,917.169,VALID,0,VALID,96.9293,VALID,0.0849042,VALID,18.3959,VALID,99,VALID,0.0325521,
2001-11-24, 01:49:00,VALID,917.154,VALID,0,VALID,96.9967,VALID,0.0509425,VALID,18.4092,VALID,99,VALID,0.150174,
2001-11-24, 01:50:00,VALID,917.127,VALID,0,VALID,97.045,VALID,0,VALID,18.4298,VALID,91,VALID,0.450994,
2001-11-24, 01:51:00,VALID,917.104,VALID,0,VALID,97.0412,VALID,-0.0169808,VALID,18.4362,VALID,94,VALID,0.0793586,
2001-11-24, 01:52:00,VALID,917.1,VALID,0,VALID,96.9929,VALID,-0.0339617,VALID,18.4425,VALID,72,VALID,0.172321,
2001-11-24, 01:53:00,VALID,917.099,VALID,0,VALID,96.9497,VALID,-0.0169808,VALID,18.4492,VALID,39,VALID,0.267233,
2001-11-24, 01:54:00,VALID,917.096,VALID,0,VALID,96.9153,VALID,0,VALID,18.4422,VALID,29,VALID,0.381546,
2001-11-24, 01:55:00,VALID,917.096,VALID,0,VALID,96.9878,VALID,-0.0339617,VALID,18.4395,VALID,14,VALID,0.55152,
2001-11-24, 01:56:00,VALID,917.109,VALID,0,VALID,97.1201,VALID,0.0169808,VALID,18.4425,VALID,19,VALID,0.79248,
2001-11-24, 01:57:00,VALID,917.106,VALID,0,VALID,97.3235,VALID,-0.0169808,VALID,18.4812,VALID,14,VALID,0.639974,
2001-11-24, 01:58:00,VALID,917.09,VALID,0,VALID,97.4278,VALID,-0.0339617,VALID,18.5297,VALID,16,VALID,0.366102,
2001-11-24, 01:59:00,VALID,917.082,VALID,0,VALID,97.4253,VALID,-0.0169808,VALID,18.5624,VALID,31,VALID,0.4491,
2001-11-24, 02:00:00,VALID,917.059,VALID,0,VALID,97.3451,VALID,-0.0339617,VALID,18.5649,VALID,31,VALID,0.695724,
2001-11-24, 02:01:00,VALID,917.065,VALID,0,VALID,97.3121,VALID,-0.0509425,VALID,18.6012,VALID,29,VALID,0.710045,
2001-11-24, 02:02:00,VALID,917.065,VALID,0,VALID,97.1964,VALID,-0.0169808,VALID,18.6007,VALID,30,VALID,0.626838,
2001-11-24, 02:03:00,VALID,917.077,VALID,0,VALID,97.0717,VALID,-0.0509425,VALID,18.6049,VALID,19,VALID,0.543919,
2001-11-24, 02:04:00,VALID,917.117,VALID,0,VALID,96.9827,VALID,0,VALID,18.5848,VALID,14,VALID,0.761402,
2001-11-24, 02:05:00,VALID,917.162,VALID,0,VALID,96.9726,VALID,-0.0169808,VALID,18.5816,VALID,14,VALID,1.01941,
2001-11-24, 02:06:00,VALID,917.162,VALID,0,VALID,96.956,VALID,-0.0509425,VALID,18.5756,VALID,18,VALID,1.27018,
2001-11-24, 02:07:00,VALID,917.163,VALID,0,VALID,97.0361,VALID,-0.0849042,VALID,18.5654,VALID,22,VALID,1.18707,
2001-11-24, 02:08:00,VALID,917.135,VALID,0,VALID,97.1455,VALID,-0.0679233,VALID,18.5813,VALID,6,VALID,1.01799,
2001-11-24, 02:09:00,VALID,917.12,VALID,0,VALID,97.1658,VALID,-0.0339617,VALID,18.6141,VALID,22,VALID,1.13302,
2001-11-24, 02:10:00,VALID,917.097,VALID,0,VALID,96.9967,VALID,-0.0339617,VALID,18.6141,VALID,15,VALID,0.833482,
2001-11-24, 02:11:00,VALID,917.093,VALID,0,VALID,96.8912,VALID,0,VALID,18.6141,VALID,19,VALID,0.928539,
2001-11-24, 02:12:00,VALID,916.634,VALID,0,VALID,96.9433,VALID,-0.0509425,VALID,18.6208,VALID,18,VALID,1.07052,
2001-11-24, 02:13:00,VALID,917.04,VALID,0,VALID,96.9077,VALID,-0.101885,VALID,18.6042,VALID,13,VALID,0.784628,
2001-11-24, 02:14:00,VALID,917.037,VALID,0,VALID,96.942,VALID,-0.0679233,VALID,18.5979,VALID,20,VALID,0.0402832,
2001-11-24, 02:15:00,VALID,917.046,VALID,0,VALID,96.9827,VALID,-0.0169808,VALID,18.5977,VALID,11,VALID,0.661675,
2001-11-24, 02:16:00,VALID,917.051,VALID,0,VALID,97.0336,VALID,0,VALID,18.5915,VALID,32,VALID,0.613932,
2001-11-24, 02:17:00,VALID,917.067,VALID,0,VALID,97.0959,VALID,-0.0509425,VALID,18.592,VALID,32,VALID,0.352273,
2001-11-24, 02:18:00,VALID,917.053,VALID,0,VALID,97.2167,VALID,-0.0339617,VALID,18.5686,VALID,30,VALID,0.174548,
2001-11-24, 02:19:00,VALID,917.041,VALID,0,VALID,97.2981,VALID,-0.0509425,VALID,18.5816,VALID,30,VALID,0.215625,
2001-11-24, 02:20:00,VALID,917.047,VALID,0,VALID,97.4253,VALID,-0.0169808,VALID,18.5878,VALID,26,VALID,0.161305,
2001-11-24, 02:21:00,VALID,917.059,VALID,0,VALID,97.4698,VALID,-0.0679233,VALID,18.592,VALID,27,VALID,0.0703125,
2001-11-24, 02:22:00,VALID,917.045,VALID,0,VALID,97.5397,VALID,-0.0849042,VALID,18.5908,VALID,29,VALID,0.207981,
2001-11-24, 02:23:00,VALID,917.029,VALID,0,VALID,97.5804,VALID,-0.0169808,VALID,18.6136,VALID,22,VALID,0.620117,
2001-11-24, 02:24:00,VALID,917.023,VALID,0,VALID,97.5766,VALID,-0.0169808,VALID,18.6104,VALID,22,VALID,0.590929,
2001-11-24, 02:25:00,VALID,917.019,VALID,0,VALID,97.6338,VALID,-0.0339617,VALID,18.6136,VALID,5,VALID,0.509766,
2001-11-24, 02:26:00,VALID,917.014,VALID,0,VALID,97.7076,VALID,-0.0509425,VALID,18.6302,VALID,345,VALID,0.655303,
2001-11-24, 02:27:00,VALID,916.988,VALID,0,VALID,97.7724,VALID,-0.0679233,VALID,18.6365,VALID,19,VALID,0.45148,
2001-11-24, 02:28:00,VALID,916.973,VALID,0,VALID,97.794,VALID,-0.0509425,VALID,18.6529,VALID,31,VALID,0.262054,
2001-11-24, 02:29:00,VALID,916.966,VALID,0,VALID,97.8118,VALID,-0.0509425,VALID,18.6588,VALID,19,VALID,0.76057,
2001-11-24, 02:30:00,VALID,916.938,VALID,0,VALID,97.8385,VALID,-0.0339617,VALID,18.6623,VALID,323,VALID,0.573902,
2001-11-24, 02:31:00,VALID,916.922,VALID,0,VALID,97.8919,VALID,-0.0509425,VALID,18.6655,VALID,308,VALID,0.14147,
2001-11-24, 02:32:00,VALID,916.892,VALID,0.2,VALID,97.9835,VALID,-0.101885,VALID,18.6923,VALID,16,VALID,0.80835,
2001-11-24, 02:33:00,VALID,916.884,VALID,0,VALID,98.0344,VALID,-0.0509425,VALID,18.7048,VALID,18,VALID,0.602431,
2001-11-24, 02:34:00,VALID,916.86,VALID,0,VALID,98.1119,VALID,-0.0849042,VALID,18.7008,VALID,11,VALID,0.978082,
2001-11-24, 02:35:00,VALID,916.832,VALID,0,VALID,98.178,VALID,-0.0339617,VALID,18.7234,VALID,324,VALID,0.674242,
2001-11-24, 02:36:00,VALID,916.825,VALID,0,VALID,98.248,VALID,-0.0509425,VALID,18.7267,VALID,199,VALID,0.514803,
2001-11-24, 02:37:00,VALID,916.817,VALID,0,VALID,98.2976,VALID,-0.0509425,VALID,18.7493,VALID,117,VALID,0.658259,
2001-11-24, 02:38:00,VALID,916.785,VALID,0,VALID,98.3497,VALID,0,VALID,18.7689,VALID,308,VALID,0.595358,
2001-11-24, 02:39:00,VALID,916.785,VALID,0,VALID,98.3535,VALID,-0.0339617,VALID,18.7816,VALID,323,VALID,1.35579,
2001-11-24, 02:40:00,VALID,916.737,VALID,0,VALID,98.3688,VALID,-0.0169808,VALID,18.7915,VALID,360,VALID,0.77386,
2001-11-24, 02:41:00,VALID,916.749,VALID,0,VALID,98.3879,VALID,-0.0339617,VALID,18.8039,VALID,19,VALID,1.34839,
2001-11-24, 02:42:00,VALID,916.733,VALID,0,VALID,98.3942,VALID,-0.0509425,VALID,18.8169,VALID,3,VALID,0.483724,
2001-11-24, 02:43:00,VALID,916.745,VALID,0,VALID,98.4108,VALID,-0.0169808,VALID,18.8303,VALID,139,VALID,0.56467,
2001-11-24, 02:44:00,VALID,916.725,VALID,0,VALID,98.4286,VALID,-0.0169808,VALID,18.8333,VALID,8,VALID,1.03504,
2001-11-24, 02:45:00,VALID,916.688,VALID,0,VALID,98.4464,VALID,0,VALID,18.8494,VALID,23,VALID,1.22492,
2001-11-24, 02:46:00,VALID,916.655,VALID,0,VALID,98.4858,VALID,-0.0679233,VALID,18.8688,VALID,18,VALID,1.13705,
2001-11-24, 02:47:00,VALID,916.666,VALID,0,VALID,98.4959,VALID,-0.0509425,VALID,18.8822,VALID,28,VALID,1.39591,
2001-11-24, 02:48:00,VALID,916.648,VALID,0,VALID,98.5137,VALID,-0.0679233,VALID,18.8854,VALID,17,VALID,1.40097,
2001-11-24, 02:49:00,VALID,916.637,VALID,0,VALID,98.5417,VALID,-0.0169808,VALID,18.8879,VALID,36,VALID,0.835938,
2001-11-24, 02:50:00,VALID,916.65,VALID,0,VALID,98.5277,VALID,-0.0509425,VALID,18.9018,VALID,346,VALID,1.04248,
2001-11-24, 02:51:00,VALID,916.629,VALID,0,VALID,98.5519,VALID,-0.0339617,VALID,18.8914,VALID,23,VALID,1.36415,
2001-11-24, 02:52:00,VALID,916.649,VALID,0,VALID,98.5672,VALID,-0.0169808,VALID,18.9108,VALID,6,VALID,1.2615,
2001-11-24, 02:53:00,VALID,916.64,VALID,0,VALID,98.5366,VALID,0,VALID,18.9075,VALID,10,VALID,1.47135,
2001-11-24, 02:54:00,VALID,916.649,VALID,0,VALID,98.5341,VALID,-0.0169808,VALID,18.8939,VALID,262,VALID,0.604852,
2001-11-24, 02:55:00,VALID,916.64,VALID,0,VALID,98.5392,VALID,0,VALID,18.8907,VALID,26,VALID,1.59955,
2001-11-24, 02:56:00,VALID,916.626,VALID,0,VALID,98.5392,VALID,-0.0169808,VALID,18.9006,VALID,2,VALID,1.21209,
2001-11-24, 02:57:00,VALID,916.645,VALID,0,VALID,98.5328,VALID,-0.0679233,VALID,18.8944,VALID,30,VALID,0.854307,
2001-11-24, 02:58:00,VALID,916.683,VALID,0,VALID,98.5227,VALID,0,VALID,18.9205,VALID,8,VALID,0.890625,
2001-11-24, 02:59:00,VALID,916.671,VALID,0,VALID,98.5239,VALID,-0.0339617,VALID,18.9071,VALID,360,VALID,1.39038,
2001-11-24, 03:00:00,VALID,916.644,VALID,0,VALID,98.4909,VALID,0.0169808,VALID,18.9073,VALID,26,VALID,1.94423,
2001-11-24, 03:01:00,VALID,916.657,VALID,0,VALID,98.5137,VALID,-0.0339617,VALID,18.9202,VALID,24,VALID,1.57292,
2001-11-24, 03:02:00,VALID,916.645,VALID,0,VALID,98.4654,VALID,0,VALID,18.9004,VALID,347,VALID,0.980587,
2001-11-24, 03:03:00,VALID,916.649,VALID,0,VALID,98.4375,VALID,-0.0509425,VALID,18.8969,VALID,342,VALID,0.813734,
2001-11-24, 03:04:00,VALID,916.658,VALID,0,VALID,98.4362,VALID,-0.0169808,VALID,18.8971,VALID,247,VALID,0.521875,
2001-11-24, 03:05:00,VALID,916.664,VALID,0,VALID,98.4476,VALID,-0.0339617,VALID,18.9036,VALID,303,VALID,0.415441,
2001-11-24, 03:06:00,VALID,916.683,VALID,0,VALID,98.4133,VALID,-0.0169808,VALID,18.9008,VALID,167,VALID,0.392525,
2001-11-24, 03:07:00,VALID,916.729,VALID,0,VALID,98.4349,VALID,0,VALID,18.9038,VALID,360,VALID,0.419975,
2001-11-24, 03:08:00,VALID,916.725,VALID,0,VALID,98.4565,VALID,0,VALID,18.9232,VALID,282,VALID,0.222168,
2001-11-24, 03:09:00,VALID,916.729,VALID,0,VALID,98.3904,VALID,0,VALID,18.9138,VALID,78,VALID,0.253255,
2001-11-24, 03:10:00,VALID,916.718,VALID,0,VALID,98.3891,VALID,0,VALID,18.8912,VALID,38,VALID,0.195313,
2001-11-24, 03:11:00,VALID,916.721,VALID,0,VALID,98.4057,VALID,-0.0339617,VALID,18.9036,VALID,44,VALID,0.825994,
2001-11-24, 03:12:00,VALID,916.671,VALID,0,VALID,98.412,VALID,0,VALID,18.9232,VALID,9,VALID,0.756579,
2001-11-24, 03:13:00,VALID,916.657,VALID,0,VALID,98.4324,VALID,-0.0169808,VALID,18.9168,VALID,24,VALID,1.58482,
2001-11-24, 03:14:00,VALID,916.638,VALID,0,VALID,98.4502,VALID,-0.0169808,VALID,18.9168,VALID,23,VALID,1.9938,
2001-11-24, 03:15:00,VALID,916.657,VALID,0,VALID,98.4362,VALID,-0.0339617,VALID,18.9135,VALID,23,VALID,1.09375,
2001-11-24, 03:16:00,VALID,916.685,VALID,0,VALID,98.4375,VALID,0,VALID,18.917,VALID,22,VALID,1.33319,
2001-11-24, 03:17:00,VALID,916.69,VALID,0,VALID,98.4756,VALID,-0.0169808,VALID,18.9006,VALID,20,VALID,1.71997,
2001-11-24, 03:18:00,VALID,916.697,VALID,0,VALID,98.5214,VALID,0,VALID,18.9133,VALID,25,VALID,1.31814,
2001-11-24, 03:19:00,VALID,916.71,VALID,0,VALID,98.5506,VALID,0,VALID,18.913,VALID,18,VALID,1.4184,
2001-11-24, 03:20:00,VALID,916.718,VALID,0,VALID,98.5684,VALID,0,VALID,18.9135,VALID,23,VALID,1.53007,
2001-11-24, 03:21:00,VALID,916.706,VALID,0,VALID,98.5544,VALID,-0.0169808,VALID,18.9165,VALID,20,VALID,1.72533,
2001-11-24, 03:22:00,VALID,916.704,VALID,0,VALID,98.5506,VALID,-0.0339617,VALID,18.9237,VALID,16,VALID,1.12545,
2001-11-24, 03:23:00,VALID,916.712,VALID,0,VALID,98.5532,VALID,-0.0509425,VALID,18.9103,VALID,344,VALID,0.42716,
2001-11-24, 03:24:00,VALID,916.739,VALID,0.2,VALID,98.5494,VALID,-0.0169808,VALID,18.9004,VALID,21,VALID,1.45735,
2001-11-24, 03:25:00,VALID,916.732,VALID,0,VALID,98.5875,VALID,-0.0169808,VALID,18.9133,VALID,26,VALID,0.430743,
2001-11-24, 03:26:00,VALID,916.776,VALID,0,VALID,98.618,VALID,-0.0339617,VALID,18.9193,VALID,24,VALID,0.326172,
2001-11-24, 03:27:00,VALID,916.778,VALID,0,VALID,98.5989,VALID,0,VALID,18.9361,VALID,52,VALID,1.21398,
2001-11-24, 03:28:00,VALID,916.763,VALID,0,VALID,98.5926,VALID,-0.0339617,VALID,18.9227,VALID,3,VALID,1.34375,
2001-11-24, 03:29:00,VALID,916.787,VALID,0,VALID,98.604,VALID,-0.0169808,VALID,18.9163,VALID,32,VALID,0.671638,
2001-11-24, 03:30:00,VALID,916.765,VALID,0,VALID,98.6231,VALID,-0.0169808,VALID,18.9364,VALID,19,VALID,1.85033,
2001-11-24, 03:31:00,VALID,916.716,VALID,0,VALID,98.6142,VALID,-0.0169808,VALID,18.926,VALID,17,VALID,1.7558,
2001-11-24, 03:32:00,VALID,916.723,VALID,0,VALID,98.6346,VALID,-0.0169808,VALID,18.9292,VALID,24,VALID,1.9614,